This is the latest recevied weather packets stored in our database for station/object N3SBK. If no packets are shown the sender has not sent any weather packets the latest 10 day(s).
| Time | Temp. | Humidity | Pressure | Rain* | Wind** | Luminosity | Snow |
|---|---|---|---|---|---|---|---|
| 1787502591 | 20.56° C | 71% | 1005.4 hPa | 0 mm | - | 687 W/m² | - |
| 1787502291 | 21.11° C | 72% | 1005.5 hPa | 0 mm | - | 131 W/m² | - |
| 1787501987 | 20.56° C | 69% | 1005.5 hPa | 0 mm | - | 733 W/m² | - |
| 1787501683 | 20.56° C | 75% | 1005.5 hPa | 0 mm | - | 67 W/m² | - |
| 1787501388 | 20° C | 77% | 1005.5 hPa | 0 mm | - | 664 W/m² | - |
| 1787501075 | 19.44° C | 79% | 1005.3 hPa | 0 mm | - | 663 W/m² | - |
| 1787500770 | 20° C | 74% | 1005.6 hPa | 0 mm | - | 52 W/m² | - |
| 1787500467 | 20° C | 78% | 1005.4 hPa | 0 mm | - | 55 W/m² | - |
| 1787500166 | 19.44° C | 79% | 1005.5 hPa | 0 mm | - | 659 W/m² | - |
| 1787499860 | 20° C | 78% | 1005.4 hPa | 0 mm | - | 63 W/m² | - |
| 1787499555 | 20° C | 77% | 1005.5 hPa | 0 mm | - | 21 W/m² | - |
| 1787499251 | 20° C | 80% | 1005.6 hPa | 0 mm | - | 667 W/m² | - |
| 1787498947 | 19.44° C | 80% | 1005.5 hPa | 0 mm | - | 163 W/m² | - |
| 1787498644 | 20° C | 78% | 1005.3 hPa | 0 mm | - | 96 W/m² | - |
| 1787498340 | 20.56° C | 78% | 1005.3 hPa | 0 mm | - | 83 W/m² | - |
| 1787498036 | 20° C | 79% | 1005.1 hPa | 0 mm | - | 675 W/m² | - |
| 1787497732 | 20° C | 82% | 1005.3 hPa | 0 mm | - | 627 W/m² | - |
| 1787497428 | 19.44° C | 82% | 1005.2 hPa | 0 mm | - | 387 W/m² | - |
| 1787497126 | 18.89° C | 83% | 1005.4 hPa | 0 mm | - | 132 W/m² | - |
| 1787496822 | 18.89° C | 85% | 1005.3 hPa | 0 mm | - | 157 W/m² | - |
| 1787496517 | 18.89° C | 84% | 1005.3 hPa | 0 mm | - | 110 W/m² | - |
| 1787496217 | 18.33° C | 85% | 1005.3 hPa | 0 mm | - | 101 W/m² | - |
| 1787495916 | 18.33° C | 86% | 1005.4 hPa | 0 mm | - | 81 W/m² | - |
| 1787495612 | 17.78° C | 87% | 1005.3 hPa | 0 mm | - | 76 W/m² | - |
| 1787495308 | 17.78° C | 88% | 1005.1 hPa | 0 mm | - | 98 W/m² | - |
* Rain latest hour (hover to see other rain measurements)
** Current wind speed in m/s (hover to see current wind gust speed)